Flag Weather past 2 weeks in Angels Camp, California, U.S.A.

Now
N/A

Sunny.


Feels Like: N/A
Forecast: 39 / 72 °F
Wind: No wind

Location: Modesto City-County-Sham Field

Current Time: Nov 26, 2014 at 9:41:26 AM

Latest Report: Nov 26, 2014 at 8:53 AM


Visibility: 3 mi

Pressure: 30.34 "Hg

Humidity: N/A

Dew point: N/A

Location of Angels CampLocation

Historic Weather in Angels Camp — Graph

°F

Angels Camp temperature yesterday

Maximum temperature yesterday: 65 °F (at 2:53 PM)
Minimum temperature yesterday: 41 °F (at 4:53 AM)
Average temperature yesterday: 51 °F

Past Weeks' High & Low Weather Summary

 TemperatureHumidityPressure
High67 °F (Nov 14, 1:53 PM)100% (Nov 20, 8:53 PM)30.50 "Hg (Nov 20, 8:53 PM)
Low1 °F (Nov 21, 7:53 AM)34% (Nov 19, 1:53 PM)29.90 "Hg (Nov 11, 4:53 PM)
Average54 °F78%30.15 "Hg
* Reported Nov 11 8:53 AM — Nov 26 8:03 AM, Angels Camp, Weather by CustomWeather, © 2014

Note: Actual official high and low records may vary slightly from our data, if they occured in-between our weather recording intervals... More about our weather records

Advertising

Angels Camp weather history for previous 24 hours

 ConditionsComfort  
Time TempWeatherWind HumidityBarometerVisibility
8:03 AM
Nov 26
42 °FFog.6 mph92%30.34 "Hg1 mi
7:03 AMN/AFog.No windN/A30.33 "Hg0 mi
6:53 AM39 °FFog.No wind96%30.34 "Hg2 mi
6:00 AM41 °FFog.No wind89%30.34 "Hg4 mi
5:04 AM41 °FFog.3 mph93%30.33 "Hg2 mi
3:53 AM43 °FFog.No wind93%30.33 "Hg2 mi
2:53 AM42 °FFog.3 mph92%30.33 "Hg2 mi
1:53 AM43 °FFog.5 mph89%30.33 "Hg2 mi
12:53 AM44 °FFog.3 mph89%30.34 "Hg2 mi
11:53 PM
Nov 25
44 °FFog.No wind93%30.36 "Hg2 mi
10:53 PM45 °FFog.3 mph90%30.37 "Hg3 mi
10:00 PM46 °FFog.No wind93%30.38 "Hg2 mi
8:53 PM49 °FFog.No wind86%30.38 "Hg5 mi
7:53 PM51 °FClear.No wind83%30.37 "Hg6 mi
6:53 PM52 °FClear.No wind80%30.37 "Hg7 mi
5:53 PM55 °FClear.No wind74%30.37 "Hg8 mi
4:53 PM62 °FClear.3 mph58%30.37 "Hg8 mi
3:53 PM65 °FSunny.No wind51%30.38 "Hg7 mi
2:53 PM65 °FSunny.3 mph49%30.38 "Hg7 mi
1:53 PM64 °FSunny.No wind50%30.40 "Hg7 mi
12:53 PM62 °FSunny.No wind54%30.42 "Hg7 mi
11:53 AM62 °FSunny.No wind56%30.44 "Hg7 mi
10:53 AM59 °FSunny.No wind64%30.47 "Hg7 mi
9:53 AM54 °FSunny.3 mph77%30.50 "Hg5 mi
Weather by CustomWeather, © 2014

See weather overviewHow to use our weather pages